Location: Newark
(45.5000°N, 11.4167°E)
Time: 20:18:12
(UTC+00:00)

Vanguard 3 - Pass Details

Date: 29 August 2019
Orbit: 508 x 3262 km, 33.3° (Epoch: 23 October)

Event Time Altitude Azimuth Distance (km) Brightness Sun altitude
Rises 18:53:13 0° 262° (W) 3,956 11.7 -9.9°
Reaches altitude 10° 18:58:43 10° 228° (SW) 2,381 9.9 -10.8°
Maximum altitude 19:00:02 11° 214° (SSW) 2,191 9.5 -11.0°
Drops below altitude 10° 19:01:15 10° 199° (SSW) 2,136 9.2 -11.2°
Enters shadow 19:04:02 - 168° (SSE) 2,471 9.3 -11.6°
Sets 19:05:08 0° 159° (SSE) 2,743 - -11.8°
